TIANWANG 1A (TW-1A)
1 40928U 15051D   20007.51554098  .00002533  00000-0  61686-4 0  9995
2 40928  97.1275  39.2205 0012375  61.7533  42.2818 15.41769384240414
LAPAN A2
1 40931U 15052B   20002.58753715  .00000638  00000-0 -24146-6 0  9996
2 40931   5.9928  85.5229 0013528  76.7647 283.7111 14.76622055230555
LQSAT
1 40958U 15057A   20007.18585355  .00000032  00000-0  12552-4 0  9997
2 40958  97.8762  75.6543 0017079 314.3998  45.5811 14.73103159228615
CHUBUSAT 2
1 41338U 16012B   20007.49432155  .00000306  00000-0  17058-4 0  9995
2 41338  31.0037 295.8685 0013780 311.5406  48.4048 15.00228215213399
CHUBUSAT 3
1 41339U 16012C   20007.24087767  .00000266  00000-0  13897-4 0  9996
2 41339  31.0132 295.3143 0013793 317.1964  42.7596 15.00397612213354
OUFTI-1
1 41458U 16025C   20007.03147636  .00001191  00000-0  63590-4 0  9994
2 41458  98.0994 109.1946 0165643  36.9434 324.3065 15.06361523203029
E-STAR-2
1 41459U 16025D   20007.49704220  .00000670  00000-0  38043-4 0  9999
2 41459  98.0990 109.2210 0166934  36.9588 324.3007 15.05959157203060
AAUSAT 4
1 41460U 16025E   20007.27361638  .00001540  00000-0  79581-4 0  9998
2 41460  98.0977 110.7792 0156279  28.4939 332.4733 15.08063586203191
NUSAT 1
1 41557U 16033B   20007.47746443  .00001152  00000-0  45319-4 0  9998
2 41557  97.4110  98.7738 0012253 305.0223  54.9866 15.27644881201047
BEESAT 4
1 41619U 16040W   20006.89834763 +.00001210 +00000-0 +53393-4 0  9999
2 41619 097.3434 070.1126 0012123 039.5766 320.6354 15.23590386184643
PRATHAM
1 41783U 16059A   20007.11113640  .00000033  00000-0  15550-4 0  9996
2 41783  98.0417  66.9297 0034861 106.9044 253.5985 14.63030266175145
ALSAT 1N
1 41789U 16059G   20007.40500067  .00000044  00000-0  17254-4 0  9992
2 41789  98.0447  69.6626 0029690  94.8111 265.6484 14.64288225175312
NAYIF 1
1 42017U 17008BX  20006.82548604 +.00001392 +00000-0 +56856-4 0  9994
2 42017 097.3815 076.6288 0006618 162.4416 197.7052 15.26035232160749
MAX VALIER SAT
1 42778U 17036P   20006.87089957 +.00000805 +00000-0 +37864-4 0  9991
2 42778 097.3293 064.8107 0011094 228.7242 131.3040 15.22335783140995
